This is the latest recevied weather packets stored in our database for station/object N1ICS-1. If no packets are shown the sender has not sent any weather packets the latest 10 day(s).
| Time | Temp. | Humidity | Pressure | Rain* | Wind** | Luminosity | Snow |
|---|---|---|---|---|---|---|---|
| 1777831502 | 16.11° C | 39% | 1016.2 hPa | 0 mm | - | 890 W/m² | - |
| 1777831202 | 16.11° C | 42% | 1016.3 hPa | 0 mm | - | 823 W/m² | - |
| 1777830901 | 16.11° C | 43% | 1016.3 hPa | 0 mm | - | 847 W/m² | - |
| 1777830602 | 16.11° C | 43% | 1016.5 hPa | 0 mm | - | 891 W/m² | - |
| 1777830302 | 16.11° C | 42% | 1016.6 hPa | 0 mm | - | 979 W/m² | - |
| 1777830002 | 16.11° C | 40% | 1016.7 hPa | 0 mm | - | 912 W/m² | - |
| 1777829702 | 15.56° C | 42% | 1016.5 hPa | 0 mm | - | 908 W/m² | - |
| 1777829401 | 16.11° C | 44% | 1016.9 hPa | 0 mm | - | 987 W/m² | - |
| 1777829101 | 16.11° C | 42% | 1016.7 hPa | 0 mm | - | 1007 W/m² | - |
| 1777828802 | 15.56° C | 42% | 1016.8 hPa | 0 mm | - | 887 W/m² | - |
| 1777828502 | 16.11° C | 45% | 1016.9 hPa | 0 mm | - | 861 W/m² | - |
| 1777828202 | 15.56° C | 45% | 1017 hPa | 0 mm | - | 827 W/m² | - |
| 1777827902 | 15.56° C | 44% | 1017.2 hPa | 0 mm | - | 748 W/m² | - |
| 1777827603 | 15.56° C | 45% | 1017.1 hPa | 0 mm | - | 878 W/m² | - |
| 1777827302 | 15.56° C | 44% | 1017.2 hPa | 0 mm | - | 809 W/m² | - |
| 1777827001 | 15.56° C | 44% | 1017.2 hPa | 0 mm | - | 985 W/m² | - |
| 1777826701 | 15.56° C | 46% | 1017.4 hPa | 0 mm | - | 905 W/m² | - |
| 1777826402 | 15.56° C | 46% | 1017.4 hPa | 0 mm | - | 904 W/m² | - |
| 1777826102 | 15° C | 50% | 1017.3 hPa | 0 mm | - | 821 W/m² | - |
| 1777825802 | 15° C | 48% | 1017.3 hPa | 0 mm | - | 1052 W/m² | - |
| 1777825501 | 15° C | 51% | 1017.5 hPa | 0 mm | - | 885 W/m² | - |
| 1777825202 | 15.56° C | 47% | 1017.5 hPa | 0 mm | - | 966 W/m² | - |
| 1777824902 | 15° C | 53% | 1017.7 hPa | 0 mm | - | 866 W/m² | - |
| 1777824602 | 15° C | 49% | 1017.9 hPa | 0 mm | - | 857 W/m² | - |
| 1777824302 | 14.44° C | 52% | 1017.9 hPa | 0 mm | - | 909 W/m² | - |
* Rain latest hour (hover to see other rain measurements)
** Current wind speed in m/s (hover to see current wind gust speed)